This is the latest recevied weather packets stored in our database for station/object K0NV. If no packets are shown the sender has not sent any weather packets the latest 10 day(s).
| Time | Temp. | Humidity | Pressure | Rain* | Wind** | Luminosity | Snow |
|---|---|---|---|---|---|---|---|
| 1777683256 | 14.44° C | 44% | 1018.3 hPa | 0 mm | - | 7 W/m² | - |
| 1777682954 | 14.44° C | 45% | 1018.4 hPa | 0 mm | - | 8 W/m² | - |
| 1777682649 | 15° C | 44% | 1018.1 hPa | 0 mm | - | 12 W/m² | - |
| 1777682347 | 15° C | 43% | 1018.2 hPa | 0 mm | - | 14 W/m² | - |
| 1777682044 | 15° C | 43% | 1018.3 hPa | 0 mm | - | 15 W/m² | - |
| 1777681740 | 15.56° C | 42% | 1018 hPa | 0 mm | - | 18 W/m² | - |
| 1777681438 | 15.56° C | 42% | 1017.8 hPa | 0 mm | - | 22 W/m² | - |
| 1777681135 | 15.56° C | 41% | 1017.8 hPa | 0 mm | - | 27 W/m² | - |
| 1777680832 | 15.56° C | 39% | 1017.7 hPa | 0 mm | - | 31 W/m² | - |
| 1777680529 | 16.11° C | 39% | 1017.8 hPa | 0 mm | - | 32 W/m² | - |
| 1777680228 | 16.11° C | 38% | 1017.7 hPa | 0 mm | - | 35 W/m² | - |
| 1777679923 | 16.11° C | 39% | 1017.8 hPa | 0 mm | - | 65 W/m² | - |
| 1777679619 | 17.22° C | 38% | 1017.7 hPa | 0 mm | - | 79 W/m² | - |
| 1777679314 | 17.78° C | 37% | 1017.7 hPa | 0 mm | - | 99 W/m² | - |
| 1777679012 | 17.78° C | 36% | 1017.6 hPa | 0 mm | - | 117 W/m² | - |
| 1777678711 | 17.22° C | 38% | 1017.5 hPa | 0 mm | - | 128 W/m² | - |
| 1777678407 | 17.78° C | 36% | 1017.9 hPa | 0 mm | - | 142 W/m² | - |
| 1777678103 | 17.78° C | 36% | 1017.9 hPa | 0 mm | - | 147 W/m² | - |
| 1777677800 | 17.78° C | 36% | 1017.7 hPa | 0 mm | - | 174 W/m² | - |
| 1777677498 | 17.22° C | 38% | 1017.6 hPa | 0 mm | - | 181 W/m² | - |
| 1777677196 | 16.67° C | 37% | 1017.8 hPa | 0 mm | - | 188 W/m² | - |
| 1777676894 | 17.78° C | 35% | 1017.9 hPa | 0 mm | - | 193 W/m² | - |
| 1777676593 | 17.78° C | 35% | 1017.6 hPa | 0 mm | - | 200 W/m² | - |
| 1777676289 | 17.78° C | 35% | 1017.8 hPa | 0 mm | - | 255 W/m² | - |
| 1777675988 | 18.33° C | 35% | 1017.6 hPa | 0 mm | - | 243 W/m² | - |
* Rain latest hour (hover to see other rain measurements)
** Current wind speed in m/s (hover to see current wind gust speed)